Tracking 29892 objects as of 21-Nov-2024
HD Live streaming from Space Station
objects crossing your sky now

COSMOS 1285

Track COSMOS 1285 now!
COSMOS 1285 is classified as:


NORAD ID: 12627
Int'l Code: 1981-071A
Perigee: 3,560.6 km
Apogee: 37,264.2 km
Inclination: 68.2 °
Period: 727.0 minutes
Semi major axis: 26783 km
RCS: 7.7618 m2 (large)
Launch date: August 4, 1981
Source: Commonwealth of Independent States (former USSR) (CIS)
Launch site: PLESETSK MISSILE AND SPACE COMPLEX (PKMTR)
Your satellite tracking list
Your tracking list is empty




NASA's NSSDC Master Catalog

Two Line Element Set (TLE):
1 12627U 81071A   24325.85500625  .00000326  00000-0  00000+0 0  9992
2 12627  68.1581 128.2762 6291897   6.2337 151.3228  1.98063778235179
Source of the keplerian elements: AFSPC